This demonstration page uses our WeatherBlox Daily Observations layout. Learn more.

Left ArrowRight Arrow

39.51506, -84.39828

Hourly Observations for June 8, 2015

Temp ( °F °C ) Dew Point ( °F °C ) Humidity (%) Winds ( mph kmh ) Pressure ( in mb ) Visibility ( mi km ) Precip ( " mm )
12:15 am 00:15 Cloudy 77 25.1 67 19.2 70 70 N N/A 29.85 1011 10 16 N/A
12:35 am 00:35 Cloudy 77 25.1 64 17.9 64 64 N N/A 29.88 1012 10 16 N/A
12:55 am 00:55 Cloudy 77 25.1 64 17.6 63 63 N N/A 29.88 1012 10 16 N/A
1:15 am 01:15 Mostly Cloudy 74 23.6 65 18.2 72 72 N N/A 29.85 1011 10 16 N/A
1:35 am 01:35 Mostly Cloudy 74 23.6 66 19.1 76 76 N N/A 29.85 1011 10 16 N/A
1:55 am 01:55 Mostly Cloudy 74 23.6 67 19.6 78 78 N N/A 29.83 1010 10 16 N/A
2:15 am 02:15 Mostly Cloudy 74 23.6 68 20 80 80 N N/A 29.83 1010 10 16 N/A
2:35 am 02:35 Mostly Cloudy 74 23.6 68 19.9 80 80 SSW 6 9 29.83 1010 10 16 N/A
2:55 am 02:55 Mostly Cloudy 77 25.1 65 18.3 66 66 SW 8 13 29.83 1010 10 16 N/A
3:15 am 03:15 Mostly Cloudy 80 26.5 64 17.8 59 59 SSW 10 17 29.80 1009 10 16 N/A
3:35 am 03:35 Mostly Cloudy 80 26.5 64 17.8 59 59 SW 15 24 29.80 1009 10 16 N/A
3:55 am 03:55 Partly Cloudy 77 25.1 63 17.2 62 62 SW 13 20 29.83 1010 10 16 N/A
4:15 am 04:15 Clear 77 25.1 64 17.6 63 63 SW 13 20 29.83 1010 10 16 N/A
4:35 am 04:35 Clear 77 25.1 65 18.2 66 66 SW 10 17 29.83 1010 10 16 N/A
4:55 am 04:55 Clear 77 25.1 65 18.1 65 65 SW 9 15 29.83 1010 10 16 N/A
5:15 am 05:15 Clear 76 24.3 63 17.4 65 65 WSW 8 13 29.83 1010 10 16 N/A
5:35 am 05:35 Clear 74 23.6 62 16.6 65 65 WSW 7 11 29.83 1010 10 16 N/A
5:55 am 05:55 Clear 74 23.6 64 17.6 69 69 SW 6 9 29.83 1010 10 16 N/A
6:15 am 06:15 Sunny 74 23.6 64 17.6 69 69 SW 7 11 29.83 1010 10 16 N/A
6:35 am 06:35 Sunny 74 23.6 64 18 71 71 SW 9 15 29.83 1010 10 16 N/A
6:55 am 06:55 Sunny 74 23.6 64 18 71 71 SW 13 20 29.83 1010 10 16 N/A
7:15 am 07:15 Partly Cloudy 74 23.6 65 18.1 71 71 SSW 12 19 29.83 1010 10 16 N/A
7:35 am 07:35 Sunny 74 23.6 65 18.2 72 72 SW 12 19 29.83 1010 10 16 N/A
7:55 am 07:55 Sunny 74 23.6 64 18 71 71 SW 10 17 29.83 1010 10 16 N/A
8:15 am 08:15 Mostly Cloudy with Light Rain 74 23.6 65 18.2 72 72 WSW 16 26 29.83 1010 10 16 N/A
8:35 am 08:35 Cloudy 74 23.4 65 18.5 74 74 SW 13 20 29.83 1010 10 16 N/A
8:55 am 08:55 Mostly Cloudy 74 23.6 65 18.3 72 72 SW 13 20 29.83 1010 10 16 N/A
9:15 am 09:15 Mostly Cloudy 74 23.6 65 18.4 73 73 SSW 13 20 29.83 1010 10 16 N/A
9:35 am 09:35 Cloudy with Drizzle 74 23.6 65 18.6 74 74 SSW 13 20 29.83 1010 10 16 N/A
9:55 am 09:55 Cloudy 74 23.6 65 18.6 74 74 SSW 13 20 29.83 1010 10 16 N/A
10:15 am 10:15 Mostly Cloudy 74 23.6 64 17.8 70 70 S 12 19 29.80 1009 10 16 N/A
10:35 am 10:35 Partly Cloudy 76 24.4 64 17.9 67 67 SSW 9 15 29.80 1009 10 16 N/A
10:55 am 10:55 Partly Cloudy 74 23.6 64 17.6 69 69 SSW 10 17 29.80 1009 10 16 N/A
11:15 am 11:15 Partly Cloudy 77 25.1 65 18.4 66 66 SSW 10 17 29.80 1009 10 16 N/A
11:35 am 11:35 Mostly Cloudy 77 25.1 65 18.1 65 65 WSW 13 20 29.83 1010 10 16 N/A
11:55 am 11:55 Cloudy 76 24.6 64 17.8 66 66 WSW 15 24 29.83 1010 10 16 N/A
12:15 pm 12:15 Mostly Cloudy 77 25.1 65 18.4 66 66 SW 15 24 29.83 1010 10 16 N/A
12:35 pm 12:35 Partly Cloudy 77 25.1 64 17.8 64 64 WSW 10 17 29.83 1010 10 16 N/A
12:55 pm 12:55 Partly Cloudy 77 25.1 64 17.9 64 64 WSW 10 17 29.83 1010 10 16 N/A
1:15 pm 13:15 Mostly Cloudy 77 25.1 65 18.1 65 65 SSW 14 22 29.83 1010 10 16 N/A
1:35 pm 13:35 Cloudy 77 25.1 65 18.6 67 67 SW 13 20 29.83 1010 10 16 N/A
1:55 pm 13:55 Cloudy 77 25.1 65 18.3 66 66 SW 14 22 29.83 1010 10 16 N/A
2:15 pm 14:15 Mostly Cloudy 77 25.1 65 18.1 65 65 SW 13 20 29.80 1009 10 16 N/A
2:35 pm 14:35 Mostly Cloudy 79 25.9 66 18.9 65 65 SW 12 19 29.80 1009 10 16 N/A
2:55 pm 14:55 Cloudy 77 25.1 64 18 65 65 WSW 13 20 29.80 1009 10 16 N/A
3:15 pm 15:15 Cloudy 77 25.1 64 17.7 64 64 WSW 14 22 29.80 1009 10 16 N/A
3:55 pm 15:55 Mostly Cloudy 78 25.4 64 17.5 62 62 WSW 20 31 29.80 1009 10 16 N/A
4:15 pm 16:15 Cloudy 77 25.1 64 17.6 63 63 W 13 20 29.77 1008 10 16 N/A
4:35 pm 16:35 Cloudy with Light Rain 76 24.2 65 18.6 71 71 WNW 18 30 29.80 1009 10 16 N/A
4:55 pm 16:55 Cloudy with Light Rain 69 20.8 62 16.5 77 77 W 9 15 29.80 1009 10 16 N/A
5:15 pm 17:15 Cloudy 69 20.8 63 17.3 80 80 SW 8 13 29.80 1009 10 16 N/A
5:35 pm 17:35 Cloudy with Drizzle 69 20.8 64 18 84 84 SW 8 13 29.80 1009 7 11 N/A
5:55 pm 17:55 Cloudy with Light Rain 70 20.9 64 18 84 84 WSW 7 11 29.77 1008 10 16 N/A
6:15 pm 18:15 Cloudy with Drizzle 72 22 67 19.2 84 84 WSW 8 13 29.77 1008 10 16 N/A
6:35 pm 18:35 Mostly Cloudy 74 23.6 68 20.2 81 81 W 9 15 29.77 1008 10 16 N/A
6:55 pm 18:55 Mostly Cloudy 74 23.6 68 20.2 81 81 WSW 8 13 29.77 1008 10 16 N/A
7:15 pm 19:15 Partly Cloudy 74 23.6 67 19.4 77 77 WSW 6 9 29.74 1007 10 16 N/A
7:35 pm 19:35 Sunny 74 23.6 66 18.8 75 75 WSW 9 15 29.74 1007 10 16 N/A
7:55 pm 19:55 Sunny 74 23.6 66 18.8 75 75 WSW 10 17 29.74 1007 10 16 N/A
8:15 pm 20:15 Sunny 74 23.6 66 19 75 75 WSW 9 15 29.77 1008 10 16 N/A
8:35 pm 20:35 Sunny 74 23.6 67 19.2 76 76 WSW 8 13 29.77 1008 10 16 N/A
8:55 pm 20:55 Partly Cloudy 74 23.6 67 19.5 78 78 SW 8 13 29.77 1008 10 16 N/A
9:15 pm 21:15 Partly Cloudy 74 23.6 67 19.5 78 78 SW 8 13 29.77 1008 10 16 N/A
9:35 pm 21:35 Clear 72 22.3 65 18.6 80 80 WSW 7 11 29.77 1008 10 16 N/A
9:55 pm 21:55 Clear 70 21 64 17.6 81 81 WSW 5 7 29.80 1009 10 16 N/A
10:15 pm 22:15 Clear 69 20.8 64 17.9 84 84 W 3 6 29.80 1009 10 16 N/A
10:35 pm 22:35 Mostly Cloudy 69 20.8 64 18 84 84 WSW 7 11 29.80 1009 10 16 N/A
10:55 pm 22:55 Cloudy with Heavy Rain 67 19.5 58 14.5 73 73 NNW 20 31 29.85 1011 7 11 N/A
11:15 pm 23:15 Cloudy with Rain 61 16.1 56 13.5 85 85 NNE 8 13 29.85 1011 7 11 N/A
11:35 pm 23:35 Cloudy with Light Rain 61 16.1 56 13.6 85 85 N N/A 29.85 1011 10 16 N/A
11:55 pm 23:55 Cloudy with Light Rain 62 16.6 57 14.1 85 85 N N/A 29.85 1011 7 11 N/A

Powered by AerisWeather